Home > Weather > Genoa > Past weeks

Flag for Italy Weather for the Past 2 Weeks in Genoa, Italy

Now
52 °F

Passing clouds.


Feels Like: 52 °F
Forecast: 46 / 51 °F
Wind: 1 mph from North

Location: Genova / Sestri

Current Time: Feb 13, 2016 at 9:10:15 PM

Latest Report: Feb 13, 2016 at 8:20 PM


Visibility: N/A

Pressure: 29.39 "Hg

Humidity: 77%

Dew point: 45 °F

Location of GenoaLocation

Historic Weather in Genoa — Graph

°F

Genoa Temperature Yesterday

Maximum temperature yesterday: 54 °F (at 11:20 AM)
Minimum temperature yesterday: 41 °F (at 11:20 PM)
Average temperature yesterday: 47 °F

High & Low Weather Summary for the Past Weeks

 TemperatureHumidityPressure
High59 °F (Jan 30, 1:50 PM)94% (Feb 2, 11:20 AM)30.48 "Hg (Feb 2, 11:20 AM)
Low41 °F (Feb 12, 11:20 PM)14% (Feb 10, 12:20 PM)29.36 "Hg (Feb 10, 12:50 AM)
Average53 °F67%29.99 "Hg
* Reported Jan 29 7:20 PM — Feb 13 7:50 PM, Genoa, Weather by CustomWeather, © 2016

Note: Actual official high and low records may vary slightly from our data, if they occured in-between our weather recording intervals... More about our weather records

Advertising

Genoa Weather History for the Previous 24 Hours

 ConditionsComfort  
Time TempWeatherWind HumidityBarometerVisibility
7:50 PM
Sat, Feb 13
54 °FPartly cloudy.5 mph72%29.36 "HgN/A
7:20 PM54 °FPartly cloudy.5 mph72%29.39 "HgN/A
6:50 PM54 °FPartly cloudy.5 mph72%29.39 "HgN/A
6:20 PM52 °FPartly cloudy.7 mph77%29.36 "HgN/A
5:50 PM52 °FPartly cloudy.13 mph72%29.36 "HgN/A
5:20 PM52 °FBroken clouds.15 mph72%29.39 "HgN/A
4:50 PM54 °FBroken clouds.15 mph67%29.39 "HgN/A
4:20 PM54 °FBroken clouds.12 mph67%29.39 "HgN/A
3:50 PM52 °FBroken clouds.14 mph72%29.39 "HgN/A
3:20 PM52 °FBroken clouds.17 mph72%29.42 "HgN/A
2:50 PM52 °FBroken clouds.14 mph72%29.45 "HgN/A
2:20 PM52 °FBroken clouds.8 mph72%29.45 "HgN/A
1:50 PM52 °FBroken clouds.7 mph72%29.45 "HgN/A
1:20 PM52 °FBroken clouds.8 mph67%29.45 "HgN/A
12:50 PM52 °FBroken clouds.12 mph67%29.47 "HgN/A
12:20 PM52 °FPartly sunny.13 mph62%29.47 "HgN/A
11:50 AM50 °FPartly sunny.10 mph71%29.47 "HgN/A
11:20 AM50 °FPartly sunny.9 mph67%29.47 "HgN/A
10:50 AM50 °FPartly sunny.1 mph67%29.47 "HgN/A
10:20 AM48 °FPartly sunny.2 mph66%29.47 "HgN/A
9:50 AM46 °FScattered clouds.3 mph66%29.47 "HgN/A
9:20 AM43 °FPartly sunny.6 mph71%29.47 "HgN/A
8:50 AM43 °FScattered clouds.6 mph71%29.47 "HgN/A
8:20 AM41 °FSunny.6 mph70%29.47 "Hg10 mi
7:50 AM41 °FSunny.7 mph70%29.47 "Hg10 mi
7:20 AM41 °FClear.7 mph70%29.47 "Hg10 mi
6:50 AM41 °FClear.8 mph70%29.47 "Hg10 mi
6:20 AM41 °FClear.8 mph70%29.45 "Hg10 mi
5:50 AM41 °FClear.7 mph70%29.45 "Hg10 mi
5:20 AM41 °FClear.7 mph70%29.47 "Hg10 mi
4:50 AM41 °FPassing clouds.3 mph66%29.45 "HgN/A
4:20 AM41 °FClear.5 mph70%29.45 "Hg10 mi
3:50 AM41 °FPassing clouds.8 mph70%29.45 "HgN/A
3:20 AM41 °FPassing clouds.9 mph70%29.45 "HgN/A
2:50 AM41 °FPassing clouds.5 mph70%29.45 "HgN/A
2:20 AM41 °FPassing clouds.7 mph70%29.45 "HgN/A
1:50 AM41 °FPassing clouds.7 mph70%29.45 "HgN/A
1:20 AM41 °FPassing clouds.7 mph76%29.47 "HgN/A
12:50 AM41 °FPassing clouds.7 mph70%29.47 "HgN/A
11:50 PM
Fri, Feb 12
41 °FPassing clouds.6 mph70%29.50 "HgN/A
11:20 PM41 °FPassing clouds.5 mph70%29.50 "HgN/A
10:50 PM43 °FPassing clouds.13 mph66%29.50 "HgN/A
10:20 PM43 °FPassing clouds.9 mph66%29.47 "HgN/A
9:50 PM43 °FPassing clouds.7 mph66%29.47 "HgN/A
9:20 PM43 °FPassing clouds.9 mph66%29.47 "HgN/A
Weather by CustomWeather, © 2016

See weather overviewHow to use our weather pages